KC5EZZ-13 Weather Reports


time (UTC)temp
F
wind
direction
speed
knots
gust
knots
rain 1hr
in
rain 24hr
in
rain mn
in
humidity
%
barometer
mb
20260510060100 73 170 6.1 9.6 0.00 0.00 0.00 61 1011.0
20260510054554 74 162 5.2 7.8 0.00 0.00 0.00 60 1011.0
20260510053056 74 162 5.2 7.8 0.00 0.00 0.00 59 1011.1
20260510051602 74 169 4.3 6.1 0.00 0.00 0.00 59 1011.3
20260510050054 73 150 3.5 6.1 0.00 0.00 0.00 58 1011.3
20260510044555 73 147 4.3 7.0 0.00 0.00 0.00 57 1011.4
20260510043101 73 145 2.6 5.2 0.00 0.00 0.00 56 1011.3
20260510041610 73 173 4.3 5.2 0.00 0.00 0.00 55 1011.3
20260510040058 74 192 3.5 6.1 0.00 0.00 0.00 54 1011.2
20260510034553 74 152 4.3 5.2 0.00 0.00 0.00 53 1011.2
20260510033056 74 189 2.6 3.5 0.00 0.00 0.00 52 1011.1
20260510031601 75 154 2.6 4.3 0.00 0.00 0.00 51 1010.9
20260510030057 76 169 2.6 4.3 0.00 0.00 0.00 50 1010.8
20260510024601 77 167 2.6 3.5 0.00 0.00 0.00 49 1010.6
20260510023057 77 169 1.7 1.7 0.00 0.00 0.00 48 1010.4
20260510021557 78 162 1.7 1.7 0.00 0.00 0.00 48 1010.2
20260510020100 78 176 1.7 2.6 0.00 0.00 0.00 47 1010.1
20260510014556 79 167 2.6 3.5 0.00 0.00 0.00 46 1010.0
20260510013107 80 159 2.6 2.6 0.00 0.00 0.00 46 1009.8
20260510011554 82 163 1.7 3.5 0.00 0.00 0.00 46 1009.7
20260510010110 84 183 2.6 4.3 0.00 0.00 0.00 45 1009.6
20260510004603 85 205 2.6 5.2 0.00 0.00 0.00 45 1009.6
20260510003057 86 206 1.7 5.2 0.00 0.00 0.00 45 1009.4
20260510001551 86 161 4.3 7.0 0.00 0.00 0.00 45 1009.5
20260510000100 87 193 5.2 7.8 0.00 0.00 0.00 45 1009.5
20260509234605 88 200 4.3 8.7 0.00 0.00 0.00 45 1009.3
20260509233054 89 160 6.1 9.6 0.00 0.00 0.00 46 1009.2
20260509231553 90 167 3.5 7.8 0.00 0.00 0.00 46 1009.3
20260509230052 90 166 6.1 7.8 0.00 0.00 0.00 47 1009.2
20260509224553 90 155 5.2 8.7 0.00 0.00 0.00 48 1009.2
20260509223051 90 156 2.6 7.0 0.00 0.00 0.00 48 1009.3
20260509221607 90 165 2.6 5.2 0.00 0.00 0.00 49 1009.3
20260509220104 89 153 3.5 7.0 0.00 0.00 0.00 50 1009.4
20260509214555 89 136 2.6 10.4 0.00 0.00 0.00 51 1009.4
20260509213055 89 144 4.3 7.8 0.00 0.00 0.00 52 1009.6
20260509211601 90 189 4.3 8.7 0.00 0.00 0.00 53 1009.7
20260509210100 89 148 3.5 8.7 0.00 0.00 0.00 54 1009.9
20260509204601 89 167 3.5 9.6 0.00 0.00 0.00 55 1010.2
20260509203058 89 194 4.3 8.7 0.00 0.00 0.00 56 1010.3
20260509201556 89 120 5.2 9.6 0.00 0.00 0.00 58 1010.5
20260509200059 89 131 2.6 9.6 0.00 0.00 0.00 59 1010.7
20260509194555 89 78 2.6 7.8 0.00 0.00 0.00 61 1010.8
20260509193103 89 114 4.3 9.6 0.00 0.00 0.00 63 1011.1
20260509191612 89 289 0.0 6.1 0.00 0.00 0.00 66 1011.2
20260509190108 87 190 3.5 8.7 0.00 0.00 0.00 68 1011.4
20260509184557 87 158 0.0 7.8 0.00 0.00 0.00 70 1011.5
20260509183102 88 132 4.3 7.0 0.00 0.00 0.00 72 1011.7
20260509181557 87 109 2.6 5.2 0.00 0.00 0.00 74 1011.9
20260509180057 88 152 0.9 6.1 0.00 0.00 0.00 76 1012.1
20260509174552 87 0 0.9 3.5 0.00 0.00 0.00 77 1012.3
20260509173105 86 8 0.9 3.5 0.00 0.00 0.00 79 1012.5
20260509171608 87 271 0.0 1.7 0.00 0.00 0.00 81 1012.7
20260509170057 86 270 0.9 3.5 0.00 0.00 0.00 82 1013.0
20260509164556 86 290 0.9 3.5 0.00 0.00 0.00 84 1013.0
20260509163104 86 0 0.0 2.6 0.00 0.00 0.00 85 1013.0
20260509161555 85 62 0.0 2.6 0.00 0.00 0.00 86 1013.2
20260509160057 83 225 0.0 3.5 0.00 0.00 0.00 87 1013.3
20260509154557 81 316 0.9 3.5 0.00 0.00 0.00 88 1013.1
20260509153058 80 319 0.9 5.2 0.00 0.00 0.00 88 1013.1
20260509151600 79 283 0.0 3.5 0.00 0.00 0.00 89 1013.1
20260509150054 77 297 1.7 4.3 0.00 0.00 0.00 89 1013.1
20260509144553 77 316 0.0 3.5 0.00 0.00 0.00 89 1013.1
20260509143051 77 304 0.0 0.9 0.00 0.00 0.00 89 1013.0
20260509141556 77 0 0.0 1.7 0.00 0.00 0.00 89 1013.0
20260509140052 76 224 0.0 1.7 0.00 0.00 0.00 89 1013.0
20260509134606 74 0 0.0 1.7 0.00 0.00 0.00 89 1013.1
20260509133053 73 0 0.0 1.7 0.00 0.00 0.00 89 1012.9
20260509131611 71 0 0.0 0.9 0.00 0.00 0.00 89 1012.7
20260509130109 68 0 0.0 0.9 0.00 0.00 0.00 88 1012.4
20260509124553 65 0 0.0 0.9 0.00 0.00 0.00 88 1012.5
20260509123104 62 0 0.0 0.0 0.00 0.00 0.00 88 1012.6
20260509121555 62 0 0.0 0.0 0.00 0.00 0.00 88 1012.4
20260509120101 62 0 0.0 0.9 0.00 0.00 0.00 88 1012.2
20260509114609 63 289 0.9 0.9 0.00 0.00 0.00 88 1012.4
20260509113056 64 150 0.0 5.2 0.00 0.00 0.00 87 1012.1
20260509111552 64 168 2.6 6.1 0.00 0.00 0.00 87 1011.8
20260509104555 65 197 3.5 5.2 0.00 0.00 0.00 87 1012.3
20260509103051 65 183 5.2 7.0 0.00 0.00 0.00 87 1012.5
20260509101553 66 0 0.0 1.7 0.00 0.00 0.00 87 1012.8
20260509100053 66 154 0.0 6.1 0.00 0.00 0.00 87 1012.7
20260509094552 66 96 4.3 9.6 0.00 0.00 0.00 86 1013.0
20260509093054 65 58 4.3 10.4 0.00 0.00 0.00 86 1013.5
20260509091559 65 67 1.7 2.6 0.00 0.00 0.00 86 1013.3
20260509084601 66 0 0.0 2.6 0.00 0.01 0.00 86 1013.5
20260509083053 66 334 2.6 6.1 0.00 0.01 0.00 85 1013.6
20260509081602 66 333 2.6 7.0 0.00 0.01 0.00 85 1013.5
20260509080056 66 319 1.7 5.2 0.00 0.01 0.00 85 1012.8
20260509074602 66 0 0.0 0.0 0.00 0.01 0.00 85 1011.7
20260509073053 67 196 1.7 5.2 0.00 0.01 0.00 85 1011.8
20260509071551 67 179 1.7 5.2 0.00 0.01 0.00 84 1011.7
20260509070105 67 201 3.5 6.1 0.00 0.01 0.00 84 1011.7
20260509064553 67 231 4.3 7.8 0.00 0.01 0.00 84 1011.4
20260509063051 67 204 4.3 6.1 0.00 0.01 0.00 83 1011.5
20260509061612 67 179 2.6 6.1 0.00 0.01 0.00 83 1011.4